Location: Saluda
(35.2377°N, 82.3468°W)
Time: 17:29:24
(UTC+00:00)

Transit 2A - Pass Details

Date: 04 October 2022
Orbit: 598 x 959 km, 66.7° (Epoch: 06 December)

Event Time Altitude Azimuth Distance (km) Brightness Sun altitude
Rises 13:46:31 0° 325° (NW) 3,022 8.6 26.5°
Reaches altitude 10° 13:48:49 10° 320° (NW) 2,153 7.9 26.9°
Maximum altitude 13:53:29 46° 247° (WSW) 992 6.6 27.8°
Drops below altitude 10° 13:58:38 10° 175° (S) 2,368 9.1 28.7°
Sets 14:01:15 0° 170° (S) 3,357 9.9 29.1°
